TimeCST,TemperatureF,Dew PointF,Humidity,Sea Level PressureIn,VisibilityMPH,Wind Direction,Wind SpeedMPH,Gust SpeedMPH,PrecipitationIn,Events,Conditions,WindDirDegrees,DateUTC
12:15 AM,1.4,-2.2,85,30.61,10.0,Calm,Calm,-,N/A,,Mostly Cloudy,0,2013-12-24 06:15:00
12:35 AM,-0.4,-4.0,85,30.60,10.0,Calm,Calm,-,N/A,,Scattered Clouds,0,2013-12-24 06:35:00
12:55 AM,-0.4,-4.0,85,30.60,10.0,SW,3.5,-,N/A,,Clear,220,2013-12-24 06:55:00
1:15 AM,-0.4,-4.0,85,30.60,10.0,Calm,Calm,-,N/A,,Clear,0,2013-12-24 07:15:00
1:35 AM,-0.4,-4.0,85,30.59,10.0,Calm,Calm,-,N/A,,Clear,0,2013-12-24 07:35:00
1:55 AM,-4.0,-5.8,92,30.59,10.0,Calm,Calm,-,N/A,,Clear,0,2013-12-24 07:55:00
2:15 AM,-4.0,-5.8,92,30.59,10.0,Calm,Calm,-,N/A,,Clear,0,2013-12-24 08:15:00
2:35 AM,-4.0,-7.6,85,30.59,10.0,Calm,Calm,-,N/A,,Clear,0,2013-12-24 08:35:00
2:55 AM,-4.0,-7.6,85,30.59,10.0,Calm,Calm,-,N/A,,Clear,0,2013-12-24 08:55:00
3:15 AM,-4.0,-7.6,85,30.58,10.0,Calm,Calm,-,N/A,,Clear,0,2013-12-24 09:15:00
3:35 AM,-5.8,-7.6,92,30.58,10.0,Calm,Calm,-,N/A,,Clear,0,2013-12-24 09:35:00
3:55 AM,-4.0,-7.6,85,30.57,10.0,Calm,Calm,-,N/A,,Clear,0,2013-12-24 09:55:00
4:15 AM,-7.6,-11.2,84,30.55,10.0,Calm,Calm,-,N/A,,Clear,0,2013-12-24 10:15:00
4:35 AM,-5.8,-9.4,84,30.56,10.0,Calm,Calm,-,N/A,,Clear,0,2013-12-24 10:35:00
4:55 AM,-5.8,-9.4,84,30.55,10.0,Calm,Calm,-,N/A,,Clear,0,2013-12-24 10:55:00
5:15 AM,-5.8,-9.4,84,30.55,10.0,Calm,Calm,-,N/A,,Clear,0,2013-12-24 11:15:00
5:35 AM,-5.8,-9.4,84,30.55,10.0,Calm,Calm,-,N/A,,Unknown,0,2013-12-24 11:35:00
5:55 AM,-5.8,-9.4,84,30.54,10.0,Calm,Calm,-,N/A,,Clear,0,2013-12-24 11:55:00
6:15 AM,-5.8,-9.4,84,30.55,10.0,Calm,Calm,-,N/A,,Clear,0,2013-12-24 12:15:00
6:35 AM,-5.8,-9.4,84,30.54,10.0,Calm,Calm,-,N/A,,Clear,0,2013-12-24 12:35:00
6:55 AM,-7.6,-11.2,84,30.54,10.0,Calm,Calm,-,N/A,,Clear,0,2013-12-24 12:55:00
7:15 AM,-5.8,-9.4,84,30.53,10.0,Calm,Calm,-,N/A,,Clear,0,2013-12-24 13:15:00
7:35 AM,-5.8,-9.4,84,30.52,10.0,Calm,Calm,-,N/A,,Clear,0,2013-12-24 13:35:00
7:55 AM,-4.0,-7.6,85,30.51,10.0,East,5.8,-,N/A,,Unknown,100,2013-12-24 13:55:00
8:15 AM,-0.4,-4.0,85,30.51,10.0,SE,3.5,-,N/A,,Clear,140,2013-12-24 14:15:00
8:35 AM,1.4,-0.4,92,30.52,10.0,SE,3.5,-,N/A,,Clear,140,2013-12-24 14:35:00
8:55 AM,3.2,-0.4,85,30.51,10.0,ESE,3.5,-,N/A,,Clear,110,2013-12-24 14:55:00
9:15 AM,5.0,3.2,92,30.51,10.0,SSE,3.5,-,N/A,,Unknown,160,2013-12-24 15:15:00
9:35 AM,8.6,3.2,79,30.50,10.0,SE,6.9,-,N/A,,Unknown,140,2013-12-24 15:35:00
9:55 AM,8.6,1.4,73,30.50,10.0,SSE,8.1,-,N/A,,Clear,150,2013-12-24 15:55:00
10:15 AM,10.4,1.4,67,30.49,10.0,SE,9.2,-,N/A,,Clear,140,2013-12-24 16:15:00
10:35 AM,12.2,3.2,67,30.48,10.0,SE,6.9,-,N/A,,Scattered Clouds,130,2013-12-24 16:35:00
10:55 AM,12.2,3.2,67,30.47,10.0,SE,9.2,-,N/A,,Mostly Cloudy,140,2013-12-24 16:55:00
11:15 AM,14.0,5.0,67,30.47,10.0,SSE,8.1,-,N/A,,Scattered Clouds,150,2013-12-24 17:15:00
11:35 AM,15.8,6.8,68,30.44,10.0,SE,8.1,-,N/A,,Scattered Clouds,130,2013-12-24 17:35:00
11:55 AM,17.6,8.6,68,30.44,10.0,SE,11.5,-,N/A,,Mostly Cloudy,130,2013-12-24 17:55:00
12:15 PM,17.6,8.6,68,30.42,10.0,ESE,8.1,-,N/A,,Scattered Clouds,120,2013-12-24 18:15:00
12:35 PM,19.4,8.6,63,30.39,10.0,ESE,9.2,-,N/A,,Unknown,110,2013-12-24 18:35:00
12:55 PM,19.4,10.4,68,30.38,10.0,ESE,9.2,-,N/A,,Clear,120,2013-12-24 18:55:00
1:15 PM,19.4,10.4,68,30.36,10.0,ESE,10.4,-,N/A,,Scattered Clouds,110,2013-12-24 19:15:00
1:35 PM,19.4,10.4,68,30.36,10.0,ESE,9.2,-,N/A,,Mostly Cloudy,120,2013-12-24 19:35:00
1:55 PM,19.4,12.2,74,30.34,10.0,ESE,11.5,16.1,N/A,,Overcast,120,2013-12-24 19:55:00
2:15 PM,21.2,12.2,68,30.32,10.0,ESE,10.4,-,N/A,,Mostly Cloudy,120,2013-12-24 20:15:00
2:35 PM,21.2,14.0,74,30.30,10.0,ESE,10.4,-,N/A,,Clear,120,2013-12-24 20:35:00
2:55 PM,23.0,15.8,74,30.29,10.0,SE,8.1,17.3,N/A,,Clear,130,2013-12-24 20:55:00
3:15 PM,24.8,17.6,74,30.28,10.0,SE,10.4,-,N/A,,Clear,130,2013-12-24 21:15:00
3:35 PM,24.8,17.6,74,30.27,10.0,SE,12.7,19.6,N/A,,Clear,130,2013-12-24 21:35:00
3:55 PM,24.8,17.6,74,30.26,10.0,SE,10.4,17.3,N/A,,Clear,130,2013-12-24 21:55:00
4:15 PM,24.8,19.4,80,30.25,10.0,SE,5.8,-,N/A,,Clear,130,2013-12-24 22:15:00
4:35 PM,24.8,19.4,80,30.24,10.0,SE,6.9,-,N/A,,Clear,130,2013-12-24 22:35:00
4:55 PM,26.6,21.2,80,30.22,10.0,SE,9.2,-,N/A,,Scattered Clouds,140,2013-12-24 22:55:00
5:15 PM,26.6,21.2,80,30.21,10.0,SE,10.4,16.1,N/A,,Scattered Clouds,140,2013-12-24 23:15:00
5:35 PM,26.6,21.2,80,30.22,10.0,SE,8.1,-,N/A,,Scattered Clouds,140,2013-12-24 23:35:00
5:55 PM,26.6,23.0,86,30.23,10.0,SE,6.9,-,N/A,,Mostly Cloudy,140,2013-12-24 23:55:00
6:15 PM,26.6,23.0,86,30.23,10.0,SE,5.8,-,N/A,,Overcast,140,2013-12-25 00:15:00
6:35 PM,26.6,23.0,86,30.25,10.0,SE,3.5,-,N/A,,Overcast,140,2013-12-25 00:35:00
6:55 PM,26.6,23.0,86,30.24,10.0,Calm,Calm,-,N/A,,Overcast,0,2013-12-25 00:55:00
7:15 PM,26.6,23.0,86,30.25,10.0,Calm,Calm,-,N/A,,Overcast,0,2013-12-25 01:15:00
7:35 PM,26.6,23.0,86,30.26,10.0,Calm,Calm,-,N/A,,Overcast,0,2013-12-25 01:35:00
7:55 PM,26.6,23.0,86,30.26,10.0,ESE,3.5,-,N/A,,Unknown,110,2013-12-25 01:55:00
8:15 PM,26.6,23.0,86,30.26,10.0,ESE,4.6,-,N/A,,Overcast,120,2013-12-25 02:15:00
8:35 PM,28.4,24.8,86,30.26,10.0,SE,3.5,-,N/A,,Overcast,140,2013-12-25 02:35:00
8:55 PM,28.4,24.8,86,30.26,10.0,SE,3.5,-,N/A,,Overcast,140,2013-12-25 02:55:00
9:15 PM,28.4,24.8,86,30.26,10.0,SE,3.5,-,N/A,,Unknown,140,2013-12-25 03:15:00
9:35 PM,28.4,26.6,93,30.26,10.0,SSE,4.6,-,N/A,,Overcast,160,2013-12-25 03:35:00
9:55 PM,28.4,26.6,93,30.26,10.0,Calm,Calm,-,N/A,,Overcast,0,2013-12-25 03:55:00
10:15 PM,28.4,26.6,93,30.26,10.0,Calm,Calm,-,N/A,,Overcast,0,2013-12-25 04:15:00
10:35 PM,28.4,26.6,93,30.26,10.0,Calm,Calm,-,N/A,,Overcast,0,2013-12-25 04:35:00
10:55 PM,28.4,26.6,93,30.26,10.0,Calm,Calm,-,N/A,,Overcast,0,2013-12-25 04:55:00
11:15 PM,28.4,26.6,93,30.25,10.0,Calm,Calm,-,N/A,,Overcast,0,2013-12-25 05:15:00
11:35 PM,28.4,26.6,93,30.25,10.0,Calm,Calm,-,N/A,,Overcast,0,2013-12-25 05:35:00
11:55 PM,28.4,26.6,93,30.25,10.0,Calm,Calm,-,N/A,,Overcast,0,2013-12-25 05:55:00